GEFSGL_500_meanwind_198.txt.gz
Wind_Speed
10 10 10 9 10 10 10 10 9 9 9 8 8 8 7 7 7 7 6 6 6 6 5 5 5 6 6 6 7 7 7 7 7 8 8 9 9 10 10 10 10 10 10
10 10 10 10 10 11 10 10 10 10 10 9 8 9 8 8 7 7 7 6 6 6 6 5 5 6 5 6 7 7 7 7 7 7 8 8 9 9 10 10 10 11 11
10 10 10 10 10 10 11 11 10 10 10 10 9 8 8 8 8 8 7 7 6 6 6 6 6 5 5 6 6 7 7 7 7 8 9 9 10 10 11 11 11 12 12
11 11 11 11 10 10 11 11 11 11 11 11 10 9 9 9 9 8 7 7 6 6 6 5 6 6 6 6 7 7 8 8 9 9 10 10 11 12 12 13 13 13 14
11 11 11 11 11 11 11 11 11 11 11 11 11 11 10 9 9 9 8 7 7 6 5 5 6 6 7 8 8 9 9 10 10 11 11 12 13 14 14 14 14 15 16
11 11 12 12 11 11 11 11 11 11 12 11 11 11 11 11 10 9 9 9 8 7 7 7 7 8 9 9 9 10 10 11 11 12 12 13 14 15 15 15 16 16 17
12 11 12 12 12 12 12 11 11 11 11 11 11 12 12 12 12 11 10 11 10 9 9 9 10 10 10 11 11 11 11 11 12 13 13 14 15 16 16 17 17 17 17
12 12 12 12 12 12 12 12 12 11 11 11 12 12 13 13 13 13 12 12 12 11 11 12 12 12 12 12 12 12 12 12 13 13 14 15 15 16 17 17 17 18 19
13 13 13 13 12 12 12 13 12 12 11 12 12 13 13 13 14 14 13 13 13 13 13 13 13 14 14 14 14 14 14 14 15 15 16 16 17 17 18 18 19 20 21
12 13 13 13 13 13 12 13 13 13 13 13 13 13 13 13 13 14 14 14 15 14 14 15 15 15 15 15 15 15 15 15 16 16 17 18 18 19 19 19 20 21 22
13 13 13 13 13 13 13 13 13 14 14 14 14 14 14 14 14 14 14 15 15 15 16 16 16 16 15 15 15 16 16 17 17 17 18 19 19 20 20 21 22 22 23
14 15 15 14 14 14 13 13 13 14 14 14 15 15 15 15 16 15 16 15 15 15 16 16 16 16 16 16 17 17 17 18 18 18 19 20 21 21 22 22 23 23 24
15 15 16 16 15 15 15 15 15 14 14 15 15 16 16 16 16 17 17 17 17 17 17 17 17 17 16 16 17 17 17 18 19 20 21 21 22 22 23 24 24 24 25
17 16 16 16 17 17 16 16 15 15 14 15 15 16 16 16 17 17 18 19 19 19 18 18 18 17 17 18 18 18 19 20 20 21 22 22 22 23 24 24 24 25 26
18 18 17 17 17 18 17 17 17 16 16 16 17 17 18 18 18 18 18 19 19 20 19 19 19 19 19 19 19 19 20 20 20 21 22 22 23 24 24 24 25 26 27
19 19 18 18 18 18 18 18 18 18 18 18 18 18 18 18 18 18 18 18 18 19 19 19 20 20 20 20 20 20 20 21 21 22 23 23 23 24 25 26 27 28 29
20 20 19 19 19 19 19 19 19 19 19 18 18 18 18 18 18 19 19 18 18 19 19 19 20 20 21 21 21 21 22 22 23 23 23 24 25 25 26 28 28 30 31
21 21 20 20 20 20 20 20 20 20 19 19 19 19 19 19 20 20 20 20 19 20 20 21 21 21 22 23 23 23 24 24 24 24 24 25 26 27 28 29 30 31 33
23 22 22 22 21 21 21 21 21 21 21 21 21 21 20 21 21 21 21 21 21 21 21 22 23 23 23 24 24 25 25 26 25 25 26 26 27 28 29 30 32 33 34
23 23 23 23 23 22 22 22 22 22 22 22 22 22 22 22 22 22 22 23 23 23 24 23 24 25 25 25 25 25 26 26 26 27 27 28 28 30 31 32 33 34 35
24 24 24 23 24 24 23 23 23 23 23 23 23 23 23 23 23 23 23 24 24 25 25 26 26 26 26 25 26 26 26 26 27 27 28 29 30 31 32 33 35 35 36
24 24 24 24 24 24 24 24 24 24 24 24 23 24 24 24 25 25 26 25 25 25 26 26 26 27 27 27 27 28 28 27 27 28 29 31 32 33 33 35 35 36 36
25 25 25 25 25 25 24 24 25 25 25 25 25 25 25 25 26 26 27 27 27 27 27 27 27 26 27 27 27 28 28 28 28 29 30 32 33 33 34 35 35 36 36
26 26 26 26 26 26 25 25 26 26 27 27 27 27 27 27 28 28 28 28 28 28 28 28 27 27 27 27 28 28 28 29 30 30 32 32 33 34 35 35 36 36 37
28 28 28 27 27 28 28 28 28 29 28 28 28 28 28 29 29 29 28 28 28 28 28 28 28 29 29 29 29 29 29 29 30 31 32 33 34 34 35 35 36 37 38
29 29 29 29 29 29 29 29 28 28 29 29 29 29 29 29 29 29 29 29 29 29 29 29 30 30 30 30 30 30 30 31 32 33 33 34 34 35 36 36 37 38 39

GEFSGL_500_meanwind_204.txt.gz
Wind_Speed
10 10 10 10 9 8 8 7 7 7 8 8 7 7 7 7 7 7 7 7 6 6 6 6 5 5 5 5 6 7 7 7 8 9 9 9 10 10 10 11 11 11 12
10 10 10 10 9 9 9 8 8 7 8 8 8 8 8 8 8 7 7 7 7 7 7 6 6 6 6 6 6 6 7 7 8 8 9 9 10 10 11 11 12 12 13
10 10 9 9 9 9 9 9 9 9 8 8 9 9 9 9 9 9 8 7 7 7 7 7 7 7 7 6 6 6 7 7 8 8 9 10 11 11 11 12 12 13 14
10 10 10 10 10 9 9 9 9 9 9 9 10 9 10 10 10 9 9 8 8 7 7 7 7 7 7 7 7 7 8 8 9 9 10 11 11 12 13 13 13 14 14
9 9 10 9 9 9 9 8 9 9 9 9 9 10 10 10 10 10 9 9 8 8 8 8 8 8 8 8 8 8 9 9 9 10 11 12 12 12 13 13 14 15 15
9 9 10 10 10 9 9 9 9 10 10 10 9 9 10 10 10 10 10 9 9 9 9 9 9 9 9 9 9 9 10 10 11 11 12 12 13 13 14 14 14 15 16
10 10 10 10 10 10 10 10 10 10 10 10 11 11 10 10 10 10 10 11 11 10 10 10 11 11 11 11 11 11 11 12 12 13 13 14 14 15 15 15 15 16 17
12 11 11 11 11 11 11 11 11 11 11 11 10 11 11 11 11 11 11 11 11 12 13 12 12 12 12 12 13 13 13 13 14 14 14 14 15 15 15 16 16 17 18
12 12 12 12 12 12 12 12 12 12 12 12 11 11 11 11 11 11 11 12 12 13 13 13 13 14 14 14 14 15 15 15 15 15 15 16 16 17 17 17 17 18 18
14 13 13 13 13 12 12 13 13 13 13 13 13 12 13 13 13 13 12 13 13 13 13 13 13 14 14 15 15 15 15 15 16 16 17 17 17 17 18 19 19 19 20
15 14 14 14 14 14 13 13 13 14 14 15 15 14 14 14 14 14 14 14 14 14 14 15 15 15 15 16 16 16 16 16 17 17 17 18 18 19 19 20 21 21 22
16 15 15 15 15 15 15 14 14 14 15 15 15 15 14 15 15 16 16 16 16 16 16 16 16 17 17 17 16 16 17 17 18 18 18 19 20 20 21 22 23 24 24
16 16 16 16 16 16 16 15 15 15 15 15 15 15 16 16 16 16 16 16 16 16 17 17 17 17 17 17 16 17 18 18 19 19 19 20 21 22 22 23 24 25 26
18 18 17 17 17 17 16 16 16 17 17 16 16 16 16 17 17 17 17 17 17 17 18 17 17 18 18 18 18 18 19 19 20 20 21 22 22 23 23 24 25 25 26
19 19 18 17 17 17 17 17 17 17 17 17 18 18 18 18 18 18 19 18 18 19 19 19 19 19 19 19 19 20 20 20 21 21 22 23 23 23 24 25 26 26 26
20 20 19 19 18 18 18 18 18 18 18 18 19 19 19 19 19 20 20 21 21 21 21 20 21 21 20 21 21 21 21 22 23 23 24 24 24 24 25 26 27 28 28
21 20 20 19 19 18 18 18 18 18 19 19 19 20 20 20 20 20 21 21 21 22 21 21 21 21 21 21 22 22 23 23 24 24 24 24 25 25 26 28 28 29 29
22 21 20 20 20 19 19 19 19 19 19 20 20 20 20 20 20 20 20 21 21 21 21 21 21 21 22 23 23 24 24 24 24 25 26 26 26 27 28 29 30 30 31
22 22 21 21 20 20 20 20 20 21 21 20 20 21 21 21 20 21 21 21 21 22 22 22 23 23 23 23 24 24 25 25 26 26 27 27 27 28 29 30 31 32 32
22 22 22 21 21 21 20 20 20 21 22 22 21 21 21 22 22 22 22 22 23 23 23 23 23 23 24 24 25 25 26 26 27 27 28 28 28 29 30 31 31 32 33
24 24 23 22 22 22 21 21 21 21 21 21 22 22 23 22 23 23 23 23 23 24 24 25 25 25 26 26 26 27 27 27 28 28 28 28 29 30 30 31 32 33 34
25 24 24 24 23 22 22 22 22 22 22 22 22 23 23 23 24 24 24 25 25 26 26 26 26 26 27 27 27 28 28 28 29 29 30 31 32 32 33 33 34 35 36
26 26 26 25 25 24 24 24 24 24 23 23 24 24 24 24 25 25 25 25 26 26 27 27 27 27 28 28 29 29 30 30 30 31 31 32 33 33 33 34 35 36 36
28 28 28 27 26 26 26 26 26 26 25 25 25 26 26 26 26 26 26 27 27 27 27 28 28 29 30 30 30 30 31 31 31 31 32 32 33 33 33 34 35 35 36
30 29 29 29 28 28 28 28 27 27 27 27 27 27 27 28 28 28 28 28 28 28 29 29 30 30 31 31 31 31 31 31 32 32 33 33 34 34 35 35 35 36 37
30 30 30 30 30 30 29 29 29 29 29 28 28 28 28 28 28 28 28 29 29 29 30 30 30 31 31 31 31 32 32 32 32 33 33 34 35 36 36 36 36 36 37

GEFSGL_500_meanwind_210.txt.gz
Wind_Speed
10 10 9 8 7 7 8 8 8 7 7 6 6 7 7 8 7 7 7 7 7 7 6 6 5 5 5 5 5 5 5 5 5 5 6 6 7 7 8 8 9 9 10
9 10 9 9 8 8 8 8 8 8 8 8 8 8 8 8 8 8 8 8 8 7 7 6 6 6 6 5 5 6 5 5 5 5 6 6 7 7 8 9 9 10 11
9 9 9 9 8 8 8 8 8 9 9 9 9 9 9 9 9 9 9 9 8 8 7 7 6 6 6 6 6 6 5 5 5 6 7 7 7 8 8 9 10 11 11
10 9 9 8 8 8 8 8 9 9 9 9 9 9 9 9 9 10 10 10 9 9 8 8 8 7 7 6 6 6 6 6 7 7 7 7 8 9 10 10 11 11 12
11 10 9 8 8 8 8 8 8 9 10 9 9 9 9 9 9 10 10 10 10 10 9 9 9 8 8 8 7 7 7 8 8 8 8 9 10 11 11 11 12 12 12
11 11 10 9 9 9 9 9 9 9 10 10 10 9 9 9 10 10 10 10 10 10 10 10 10 9 9 9 9 8 9 9 9 9 10 11 12 12 12 12 12 13 13
12 12 12 11 11 10 10 10 10 10 10 11 11 10 9 9 10 10 11 11 11 11 11 10 10 10 9 10 10 10 10 11 11 11 12 12 13 13 13 13 14 14 15
13 13 13 12 12 12 11 11 10 11 11 11 11 11 11 10 10 10 11 11 12 12 12 11 11 10 10 10 10 11 11 12 12 12 12 13 13 14 14 15 15 16 16
14 14 14 13 13 13 12 12 11 11 12 12 11 12 12 11 11 11 11 12 12 13 12 12 11 11 11 12 12 12 12 12 13 13 14 14 15 15 16 16 17 17 17
15 15 15 15 15 14 13 13 12 12 12 13 13 12 13 13 13 12 12 13 14 13 14 14 13 13 13 12 13 13 14 14 14 14 15 15 15 16 16 17 18 18 18
16 15 15 16 15 15 14 14 14 13 13 14 14 14 14 14 14 14 14 14 15 15 15 15 15 15 15 15 15 15 15 16 16 16 17 17 17 17 18 18 19 20 20
17 16 16 16 16 16 15 15 15 15 15 15 15 16 16 16 16 16 16 15 15 15 16 16 17 17 17 17 17 17 17 18 18 18 18 18 19 19 20 20 20 21 21
19 18 18 17 17 17 17 17 16 16 16 16 16 16 17 17 17 17 17 17 17 17 17 17 17 18 18 18 18 19 19 19 19 20 19 20 20 20 21 21 21 21 22
21 20 19 19 19 19 18 18 18 18 17 17 17 18 19 19 19 18 18 19 18 18 19 19 19 19 19 20 20 19 19 20 20 20 20 21 22 21 21 21 22 22 23
22 21 20 20 20 20 20 20 19 19 18 18 18 18 18 19 19 19 19 20 20 20 21 21 21 21 21 21 21 21 21 21 21 21 21 22 21 21 22 22 22 23 23
23 23 22 21 21 21 21 21 20 20 19 18 18 18 18 19 19 19 19 20 20 20 21 21 22 22 23 23 23 23 23 23 23 23 23 22 22 22 23 23 23 24 25
24 23 23 22 21 22 22 21 21 20 20 19 19 19 19 19 18 19 19 20 21 21 21 22 23 23 24 25 25 25 25 24 24 24 25 25 25 25 25 25 26 26 27
25 25 24 23 23 22 23 22 21 21 21 20 20 20 20 20 19 19 19 20 20 20 21 21 22 23 24 25 25 25 25 25 25 25 25 26 26 26 27 27 28 29 29
27 26 26 25 24 24 23 23 22 22 22 22 21 21 21 21 20 21 20 20 20 21 22 22 23 24 24 25 25 26 26 26 25 25 26 27 27 27 28 29 30 31 31
29 28 27 27 26 25 24 24 23 23 23 23 22 22 22 22 21 22 21 21 21 22 22 22 23 24 25 25 25 26 26 26 26 27 27 27 28 29 29 30 31 31 31
30 29 28 28 27 26 25 25 25 24 24 23 23 23 23 23 23 23 23 22 22 23 23 23 24 24 25 25 25 26 26 27 27 28 28 28 29 29 30 31 31 31 31
30 30 29 29 28 28 27 26 26 25 25 25 24 24 24 24 24 23 23 23 23 23 24 24 25 25 25 25 26 26 27 28 28 29 29 30 30 30 31 32 32 33 33
31 31 30 30 29 29 28 28 27 26 26 25 25 25 24 24 24 24 24 24 24 24 24 24 25 26 25 25 26 27 27 28 29 30 30 31 32 32 33 33 34 34 34
31 31 31 30 30 30 30 30 29 28 27 27 26 25 24 25 25 25 25 25 25 25 25 26 26 26 27 27 28 28 28 29 29 30 30 31 32 33 33 34 34 35 35
31 31 31 31 31 31 30 30 29 28 28 27 26 26 26 26 26 27 27 27 27 28 28 28 28 28 28 29 29 30 30 31 31 32 32 32 33 33 34 34 35 36 37
31 32 32 32 32 31 31 30 30 30 30 29 29 28 28 27 28 28 28 29 29 29 30 30 30 30 30 30 31 32 32 33 33 33 33 33 34 35 35 36 37 37 38

GEFSGL_500_meanwind_216.txt.gz
Wind_Speed
10 10 9 9 10 9 9 8 8 8 8 7 8 8 8 8 8 8 8 7 7 7 7 7 6 6 6 6 6 6 6 6 6 6 6 6 7 7 8 8 8 8 9
10 10 10 10 10 10 9 9 9 9 8 8 8 8 9 8 8 8 8 8 8 7 7 7 6 6 6 6 6 6 6 6 6 6 6 7 8 8 8 9 9 9 10
11 11 11 10 10 10 10 9 9 9 9 9 9 9 9 9 9 9 8 8 8 8 8 7 7 7 6 6 6 6 6 6 6 6 7 8 8 9 9 10 10 11 11
12 12 11 11 11 10 10 10 10 10 9 9 9 9 9 9 10 9 9 9 8 8 8 8 8 8 8 7 7 7 7 7 7 7 8 8 9 9 10 10 11 11 12
13 12 12 12 12 11 11 11 10 10 10 10 10 10 10 10 10 10 9 9 9 9 9 9 9 9 9 8 8 8 8 8 8 8 9 9 10 10 10 11 12 12 13
14 13 14 13 13 12 12 11 11 11 11 11 11 11 11 11 10 10 10 10 10 9 9 9 9 9 9 9 9 9 9 10 10 10 10 11 11 11 12 12 13 13 13
15 15 15 15 14 14 13 12 12 12 12 12 12 12 12 12 11 11 11 10 11 10 10 10 10 10 10 10 10 10 10 10 10 10 11 11 12 12 13 13 13 14 14
16 16 16 16 15 14 14 13 13 13 13 13 13 12 12 12 13 12 11 11 11 11 11 11 11 11 11 11 11 11 11 11 11 11 12 12 12 13 13 14 15 15 16
18 17 17 16 16 15 15 14 14 14 13 13 13 13 13 14 14 14 13 13 13 12 12 12 13 12 12 12 12 12 12 12 12 12 13 13 14 15 15 16 16 17 17
19 19 18 18 17 16 16 16 16 15 14 14 14 15 15 15 15 15 15 15 14 14 14 15 15 14 14 14 14 14 14 14 15 15 15 16 16 17 17 18 18 18 18
21 20 20 19 19 18 17 17 17 17 16 16 15 16 16 16 17 17 16 16 16 16 15 16 16 15 16 16 16 16 17 17 17 18 18 18 18 19 19 19 20 19 19
22 21 21 21 20 19 18 18 17 17 17 17 17 16 16 16 17 17 17 17 17 17 16 16 16 16 17 17 17 17 18 19 19 19 19 19 20 21 20 20 20 20 21
23 22 21 21 20 20 19 19 19 18 18 18 18 17 17 16 16 17 17 17 18 18 18 18 18 18 18 19 19 19 20 20 20 21 21 21 22 22 22 22 22 22 22
23 23 22 22 21 21 21 20 20 19 18 18 18 17 17 17 17 17 17 17 18 19 19 19 19 19 20 20 21 21 21 22 22 22 23 23 23 23 23 23 23 24 24
24 23 24 24 23 23 22 22 21 21 20 19 19 18 18 18 18 19 19 19 19 20 20 20 21 21 21 21 21 22 22 23 23 24 24 24 24 24 24 24 24 25 25
25 24 24 24 24 24 24 23 23 22 22 21 21 21 20 20 20 20 20 21 21 21 22 22 22 22 22 22 23 23 24 24 25 25 25 25 25 26 26 26 26 26 26
26 26 25 25 25 25 25 25 24 24 23 23 22 22 21 21 21 22 22 22 22 22 22 22 22 22 23 23 24 25 25 26 26 26 26 26 26 26 26 26 26 27 28
27 28 27 27 26 26 26 25 25 25 24 24 24 24 23 23 22 22 22 22 22 23 23 23 23 23 23 24 24 25 25 26 26 25 25 25 25 25 26 26 27 28 29
28 28 29 29 28 27 26 26 26 26 26 25 25 25 25 24 24 24 23 23 23 23 23 23 23 23 23 24 24 25 25 25 26 25 25 26 26 26 26 27 27 28 29
28 29 29 30 30 29 28 27 27 27 27 26 26 26 26 26 25 25 24 24 24 24 24 23 24 24 24 24 25 25 25 25 25 26 26 27 27 28 28 29 29 30 30
29 30 30 31 31 31 29 29 29 29 28 27 27 27 27 27 26 26 26 25 25 25 25 24 25 25 25 26 26 26 26 26 26 27 27 27 28 28 29 30 30 31 31
29 30 31 32 32 32 31 30 30 30 29 29 28 28 27 27 27 27 27 28 27 27 27 27 26 26 26 26 27 27 27 27 28 28 28 29 29 29 29 30 31 31 32
29 30 31 32 33 32 32 31 31 31 31 30 30 29 29 28 28 29 29 29 29 29 29 28 28 28 28 28 28 28 29 29 29 29 29 30 30 30 30 31 32 32 33
29 30 31 32 33 33 33 32 32 32 32 32 30 30 30 30 29 29 30 30 30 30 30 30 30 30 30 30 29 30 30 31 31 31 31 30 30 30 30 31 32 33 33
30 31 32 32 32 33 33 33 33 33 33 33 32 31 31 31 31 31 30 30 31 31 31 31 31 31 31 31 31 30 30 30 30 30 30 30 30 30 31 32 32 33 34
31 31 31 32 32 33 33 33 33 33 33 33 33 33 33 33 32 32 32 32 32 32 32 32 32 32 32 32 32 31 31 30 30 30 30 31 31 31 32 32 33 33 33

GEFSGL_500_meanwind_222.txt.gz
Wind_Speed
14 13 12 12 12 12 12 11 10 9 9 10 10 9 10 10 10 10 9 9 9 9 9 9 8 8 8 8 8 8 7 7 7 7 7 7 7 7 7 8 7 8 8
15 14 14 13 13 12 12 12 11 10 10 10 10 10 10 10 10 10 10 9 9 9 9 9 9 9 8 8 8 7 7 7 7 7 7 7 7 7 7 7 7 8 8
16 16 15 14 14 13 12 12 12 11 11 11 11 11 11 11 11 11 11 10 10 10 10 9 9 9 8 8 8 8 8 8 8 8 8 8 8 8 8 8 8 8 9
17 17 16 16 15 14 14 13 13 12 12 12 12 12 12 12 12 11 11 11 11 10 10 10 9 9 9 9 9 8 8 8 8 8 9 9 9 8 8 9 9 9 10
18 18 18 17 16 16 15 14 14 14 13 12 12 13 13 13 13 13 13 12 12 11 10 10 10 10 10 10 10 10 9 9 9 9 9 9 9 9 9 9 9 10 10
20 19 19 19 18 18 16 15 15 14 13 13 12 13 14 13 13 13 13 13 12 12 11 11 11 11 11 11 11 12 11 10 10 10 10 10 10 10 10 10 10 11 12
21 21 20 20 20 19 18 17 16 15 14 13 13 13 14 15 14 14 14 13 13 13 13 12 12 12 12 12 12 12 12 11 11 11 11 11 12 12 12 12 13 13 13
21 21 21 20 20 20 19 18 17 16 15 14 14 14 15 15 15 15 15 14 14 14 14 14 14 14 13 13 13 13 13 13 13 13 13 13 14 14 14 14 14 14 15
22 21 21 22 21 21 21 20 19 17 16 15 15 15 15 15 15 14 15 15 15 15 15 15 15 15 15 15 15 14 13 13 14 13 14 14 15 15 15 16 16 16 16
23 22 21 22 22 22 22 21 20 19 18 17 16 16 16 16 15 15 15 15 15 16 16 16 16 16 16 16 16 15 15 15 15 15 15 16 16 17 17 18 18 19 19
23 23 22 22 24 23 23 22 21 20 19 18 18 18 17 17 17 17 16 16 16 16 17 17 16 16 16 17 17 17 17 17 17 17 18 18 18 18 18 19 19 20 20
24 23 23 22 23 24 24 23 22 22 21 20 20 19 19 19 18 18 17 17 17 18 18 18 18 18 18 18 18 18 18 19 19 20 20 20 20 20 20 20 20 21 21
23 23 24 24 24 25 25 24 24 23 22 22 21 21 20 20 19 19 19 18 18 19 19 19 19 19 19 19 19 19 19 20 20 21 21 21 22 22 22 21 21 22 22
23 24 24 24 24 25 25 25 24 24 24 23 23 22 21 20 21 20 19 19 19 20 20 20 20 20 19 20 20 19 20 20 21 22 22 22 23 23 22 22 23 23 23
23 24 25 26 25 25 25 26 25 26 26 24 24 23 22 22 21 21 20 20 20 20 21 21 21 21 20 20 20 20 20 21 21 22 23 24 24 23 24 24 25 24 24
24 24 25 27 26 26 26 27 27 27 26 26 25 25 24 23 23 23 22 22 22 21 21 21 21 21 21 21 21 21 21 21 22 22 23 23 23 24 24 25 25 26 26
25 25 25 26 27 27 27 27 28 28 28 27 27 26 26 25 24 25 25 24 24 23 22 22 22 22 22 21 21 22 22 22 23 23 23 23 23 24 25 26 27 27 28
24 25 26 26 27 28 28 28 28 29 29 29 28 28 28 27 26 26 26 25 24 24 24 23 23 23 23 23 23 23 24 24 24 25 25 25 25 26 26 26 27 27 27
25 25 27 27 28 29 29 30 30 30 30 30 30 29 28 28 27 27 26 25 24 25 25 25 25 25 25 25 25 25 26 26 26 26 27 27 27 27 28 28 27 27 27
27 27 28 28 29 30 30 31 31 31 31 31 30 30 29 29 28 28 27 26 25 25 26 26 26 26 27 27 27 28 28 28 28 28 27 27 28 28 28 28 27 28 28
29 29 29 29 30 31 31 31 31 32 32 31 31 31 30 30 29 29 28 27 27 27 27 28 28 28 27 27 28 28 28 28 28 28 28 28 28 29 29 29 29 29 29
30 30 30 30 30 30 31 32 32 33 34 33 32 32 32 31 30 30 30 29 29 30 29 29 29 28 28 28 28 28 28 28 28 28 28 29 29 29 30 30 30 30 30
31 31 31 30 30 30 30 32 33 34 34 34 34 34 33 32 31 31 31 31 31 31 31 30 30 29 29 29 29 29 29 29 29 29 29 29 29 29 30 30 30 31 31
31 31 31 31 31 31 31 32 33 35 36 36 35 34 34 33 33 33 33 33 32 32 31 31 31 30 30 30 30 30 30 30 30 30 30 30 30 30 30 30 30 31 32
30 30 30 31 31 31 32 33 33 34 35 36 36 36 35 34 34 33 33 33 33 33 32 32 32 31 31 32 32 31 31 31 31 31 31 31 31 31 31 31 31 31 32
30 30 31 31 31 32 32 33 33 34 34 35 36 36 36 36 35 34 34 34 33 33 33 33 32 32 32 32 33 32 32 32 31 31 31 31 31 31 32 32 33 33 33

GEFSGL_500_meanwind_228.txt.gz
Wind_Speed
17 16 16 15 14 14 13 13 12 12 11 10 10 11 11 10 10 10 10 9 9 9 9 9 8 8 8 8 8 8 8 7 7 7 8 8 8 8 9 9 8 8 9
18 18 17 16 15 15 14 14 13 12 11 10 11 11 11 11 10 10 10 10 10 9 9 9 9 9 9 9 9 9 9 8 8 8 8 8 9 9 9 9 9 9 9
19 19 18 18 17 16 16 15 14 13 12 11 12 12 11 11 11 11 11 11 11 11 10 10 10 9 9 9 9 9 9 9 9 9 9 9 9 9 9 10 10 10 10
19 19 19 19 18 18 17 16 15 15 14 13 13 13 13 12 12 11 11 12 11 11 11 11 10 10 9 9 10 10 10 10 10 10 10 10 10 10 10 10 10 11 11
20 20 19 19 19 20 19 18 17 16 15 14 14 14 14 13 13 12 12 12 12 12 12 12 12 11 10 10 10 10 11 11 11 11 11 11 11 11 11 11 11 11 12
21 21 20 20 20 21 20 19 18 17 16 16 15 15 15 14 14 13 13 13 13 13 13 13 12 12 11 11 11 11 11 12 12 12 12 11 11 12 12 13 13 13 13
23 22 21 22 22 22 21 20 19 18 18 18 17 16 16 16 15 14 14 14 14 14 14 14 13 13 13 12 12 12 12 13 13 12 12 12 12 13 13 14 14 15 15
24 24 23 23 23 23 22 21 20 19 19 19 19 18 17 17 16 15 15 15 15 15 14 15 14 14 14 14 14 14 14 14 14 14 14 14 14 14 15 15 15 16 16
26 25 25 24 24 24 24 23 23 21 20 19 20 19 19 18 17 17 16 16 16 16 16 15 15 15 15 15 15 15 15 16 15 15 16 16 16 16 16 16 16 16 17
26 26 26 26 25 25 25 25 24 23 22 21 21 20 20 19 19 18 18 18 17 16 16 16 16 16 16 16 17 16 16 16 16 16 17 17 17 17 17 18 18 18 18
26 26 25 25 26 26 26 26 26 25 24 23 23 22 21 21 20 20 19 19 18 17 17 17 17 17 17 17 18 18 17 17 18 18 18 18 18 18 19 19 20 20 20
25 25 25 26 27 27 27 27 26 26 25 24 24 23 22 22 21 21 21 20 19 19 19 18 19 19 19 18 18 18 18 18 19 19 19 19 19 19 20 21 22 22 22
24 24 24 25 26 27 28 28 27 27 26 26 25 24 23 23 22 22 22 22 21 20 20 20 20 20 20 20 20 19 19 19 20 20 19 19 20 20 21 22 23 23 23
24 24 24 24 25 25 26 28 28 27 27 26 26 25 24 24 24 23 23 23 23 22 22 21 21 21 21 21 21 21 20 20 21 21 21 21 21 22 22 23 23 22 23
25 24 24 24 25 25 26 27 28 27 27 26 26 25 25 25 25 24 24 24 24 23 23 22 22 22 22 22 22 22 22 22 22 22 22 22 22 22 23 23 23 23 23
26 25 25 25 25 25 26 26 26 28 28 28 27 26 26 26 26 26 26 26 26 25 25 24 24 23 23 22 23 23 23 23 23 23 23 23 23 23 23 23 23 23 23
27 27 27 26 26 26 26 26 26 26 27 28 28 28 28 27 28 28 28 28 27 27 26 25 25 25 25 24 24 24 24 23 23 23 23 23 23 24 24 25 24 25 25
28 28 28 28 27 27 27 27 27 27 27 27 28 29 29 29 29 29 30 29 28 28 28 27 27 26 26 26 25 25 25 25 25 25 24 24 24 25 25 26 26 26 27
29 29 30 30 29 29 28 28 28 27 27 28 28 29 29 29 30 30 31 30 29 29 29 29 29 28 28 27 27 27 27 27 26 26 26 26 26 26 26 27 27 27 28
30 30 30 30 30 30 30 29 29 29 28 28 29 29 29 30 30 30 30 31 31 30 29 30 30 30 30 29 28 28 28 28 28 27 27 27 27 28 28 28 29 29 29
30 31 30 30 31 31 31 32 31 31 31 30 30 30 31 31 30 30 31 31 32 31 31 31 31 30 30 30 29 29 29 29 29 29 29 29 29 30 30 30 30 30 30
31 30 30 30 30 30 32 33 33 32 32 31 31 31 32 32 31 31 31 31 32 32 31 32 31 30 30 31 31 30 30 30 30 30 30 30 30 30 31 30 30 30 30
30 30 30 31 31 31 32 32 32 32 32 32 32 31 32 31 31 31 32 32 32 32 32 32 32 32 32 32 32 31 31 31 30 30 30 30 30 30 30 30 30 31 31
29 29 30 30 31 31 31 31 31 32 32 33 32 32 32 32 32 32 33 33 33 32 32 32 32 32 33 32 32 32 32 32 32 32 32 31 31 30 31 31 32 32 32
29 30 30 30 31 32 32 32 32 32 33 33 33 33 32 32 33 33 33 33 33 33 33 33 33 33 33 33 32 33 33 33 33 34 33 33 33 32 32 31 31 32 32
29 29 29 30 31 32 32 33 33 33 33 33 33 33 32 33 33 33 33 33 34 34 34 34 34 34 35 34 34 34 34 34 34 35 35 34 34 33 33 33 33 32 32

GEFSGL_500_meanwind_234.txt.gz
Wind_Speed
17 16 16 16 15 14 14 14 13 13 12 12 11 11 11 10 11 11 11 10 10 9 9 9 9 9 9 8 8 8 8 8 8 8 8 8 8 8 8 8 8 8 8
18 18 17 17 17 16 15 15 15 14 13 13 13 12 12 12 11 11 11 11 11 10 10 10 9 9 8 8 8 7 8 8 8 8 8 8 8 8 8 8 8 8 8
18 18 18 18 18 18 17 17 17 16 15 15 14 14 13 13 12 12 12 12 11 11 11 11 11 10 9 9 8 8 8 8 8 8 9 9 9 9 9 9 9 9 9
18 18 18 18 18 19 18 18 18 18 17 16 15 15 15 14 14 14 13 13 12 12 12 11 11 11 10 10 9 8 8 9 9 9 9 10 10 10 10 10 9 9 9
19 19 19 19 19 19 19 19 19 19 19 18 17 16 16 16 16 15 15 15 14 13 13 13 12 12 12 12 10 10 10 10 10 10 11 11 11 11 10 10 10 10 10
20 20 20 20 20 19 20 20 20 20 20 19 19 18 17 17 17 16 16 16 14 14 14 13 13 13 13 12 12 11 11 12 12 12 11 11 11 11 11 11 11 11 11
22 22 22 22 22 22 22 22 22 22 22 21 21 20 19 18 18 18 18 17 16 15 15 15 15 14 14 14 14 13 13 13 13 13 13 12 12 13 13 13 13 13 13
23 23 22 23 23 22 22 22 23 23 23 22 22 21 21 20 20 19 19 18 18 18 17 16 16 16 16 15 15 14 14 14 14 14 14 14 14 14 14 15 15 15 15
23 23 22 23 23 23 23 22 23 24 24 23 24 23 22 21 21 21 20 20 19 19 20 19 18 17 17 16 16 16 15 15 15 15 16 16 16 16 16 16 16 16 16
23 23 23 23 23 23 23 23 23 23 24 25 25 24 24 23 22 22 22 22 21 21 21 20 20 20 19 18 18 18 17 16 17 17 17 17 18 18 18 18 17 17 17
25 25 24 24 25 25 25 25 24 24 24 26 26 26 25 25 25 24 24 23 23 23 22 21 21 21 21 20 20 20 19 19 19 19 19 19 18 19 19 19 19 18 19
27 26 26 26 26 26 26 26 26 26 26 26 27 27 26 27 27 26 26 25 24 24 23 22 22 22 22 22 22 22 21 20 20 20 20 20 19 20 20 20 20 20 20
28 27 27 26 26 26 26 27 27 27 27 27 27 27 28 28 28 28 28 27 26 25 25 24 23 23 24 24 23 23 22 22 21 21 21 21 21 21 21 21 20 20 20
29 28 28 28 27 28 28 28 28 28 28 28 28 28 28 29 30 29 28 28 27 27 26 25 25 25 25 25 25 24 24 23 23 23 22 23 23 23 22 22 22 22 22
29 29 29 29 28 29 29 29 29 30 30 29 29 29 28 29 30 30 30 29 29 28 28 27 26 26 26 26 26 26 25 25 24 24 23 23 24 24 24 24 24 23 23
28 28 29 29 30 30 31 31 31 30 30 30 29 29 28 28 29 31 31 30 30 30 29 28 28 27 27 27 27 26 26 26 26 25 24 24 25 25 25 24 25 24 24
28 28 29 29 30 31 32 31 30 30 30 30 29 29 28 29 29 29 30 31 30 31 30 29 29 28 28 28 28 28 27 27 27 26 26 26 26 26 26 26 26 26 26
30 29 30 30 30 31 32 31 31 31 31 30 31 30 30 30 30 30 29 30 31 31 31 31 30 30 29 29 29 29 29 28 28 27 27 27 27 27 27 27 27 27 27
30 30 30 30 30 32 32 32 32 32 32 32 31 32 33 32 31 32 31 31 31 31 31 32 32 31 31 31 31 31 30 29 29 29 28 28 28 28 28 28 28 28 28
30 30 30 30 30 31 31 32 32 33 32 32 32 33 33 32 32 31 31 31 32 31 31 31 32 31 32 32 32 32 32 31 30 30 30 29 29 29 29 29 29 29 29
29 29 30 30 30 30 31 31 32 32 32 32 32 33 33 33 33 32 32 32 32 32 31 31 31 32 32 33 33 33 32 32 31 31 31 30 30 30 30 30 30 30 31
29 29 29 29 29 30 30 30 30 30 31 31 32 33 33 33 33 33 33 33 32 33 33 32 31 31 32 33 34 34 34 33 33 32 32 31 31 31 31 31 32 32 32
29 29 29 29 29 29 29 29 29 29 30 31 31 32 32 33 33 34 33 33 32 32 33 33 32 33 33 33 34 34 34 34 34 34 34 33 33 33 33 33 33 33 34
27 26 27 28 28 29 29 29 28 28 29 30 31 31 31 32 32 33 34 33 33 33 33 33 33 33 34 35 35 34 35 35 35 35 36 36 35 35 35 35 35 35 36
25 23 24 25 26 26 26 27 27 27 28 28 29 30 31 31 31 32 33 33 34 34 34 34 34 34 34 35 35 35 35 35 35 35 36 36 36 36 36 36 36 36 37
22 21 21 22 22 23 24 25 25 26 26 27 27 28 29 29 31 31 33 34 34 35 35 35 35 35 35 34 35 36 36 35 35 36 36 37 37 37 37 37 37 38 38

GEFSGL_500_meanwind_240.txt.gz
Wind_Speed
17 17 16 16 15 16 16 16 15 14 14 14 14 14 13 14 14 14 14 14 13 13 13 13 12 12 11 11 11 11 10 10 10 10 9 9 8 8 8 8 8 9 9
18 18 17 16 17 16 17 17 16 15 15 15 15 15 15 15 15 15 15 15 14 14 14 14 14 13 13 13 12 11 11 11 10 10 10 9 9 9 8 9 9 9 9
19 18 18 17 17 17 17 17 17 17 17 17 16 16 16 16 16 16 16 17 17 16 16 16 16 15 14 14 13 12 12 12 11 11 11 10 10 9 9 9 9 10 10
21 20 19 19 19 19 19 18 18 18 18 18 18 17 17 17 17 17 17 18 18 17 17 17 16 16 15 15 14 14 13 13 12 12 12 11 11 11 11 11 11 11 11
22 22 21 20 20 20 20 20 20 19 19 20 19 19 19 19 18 18 18 18 19 19 18 18 18 17 17 16 16 15 14 14 14 13 13 12 12 12 12 12 12 12 12
22 22 22 22 22 22 22 22 22 21 21 20 21 21 21 20 20 19 20 20 20 20 20 19 19 18 18 18 17 16 16 16 15 14 14 14 14 14 14 14 14 14 14
23 23 23 23 23 23 23 23 23 23 23 22 22 22 22 22 23 22 22 22 22 22 21 20 20 19 19 18 18 18 17 16 16 16 16 16 16 16 15 15 15 15 15
23 23 23 23 24 24 25 25 24 24 24 24 23 24 24 23 24 24 23 22 22 22 22 21 21 20 20 20 19 19 18 18 18 17 17 17 17 17 16 17 17 17 17
24 24 24 25 25 25 25 25 26 25 25 25 25 25 25 24 24 24 24 23 23 23 23 23 22 22 22 22 21 21 21 20 20 20 19 19 19 18 18 18 18 18 18
24 24 25 25 26 26 26 26 26 26 26 27 26 26 26 26 25 24 24 24 24 24 24 24 24 23 23 23 23 22 22 22 22 21 21 21 21 20 20 19 19 19 19
25 25 25 26 27 27 27 27 27 27 28 28 28 28 27 27 27 26 26 25 25 25 25 26 26 25 25 25 24 24 24 24 24 23 23 23 22 22 21 21 21 21 20
27 27 27 28 28 28 28 28 28 29 29 29 29 28 29 28 28 29 28 28 28 27 27 27 27 27 26 26 26 25 25 25 25 25 25 24 24 23 22 22 22 22 21
28 29 29 30 30 30 30 30 30 30 30 30 30 30 30 31 31 31 30 30 29 29 29 29 28 28 28 27 27 27 26 26 26 26 25 25 25 24 24 23 23 23 22
30 30 31 31 31 31 32 32 32 32 32 32 31 32 32 33 33 33 32 31 30 30 30 30 30 29 29 29 29 28 27 27 27 26 26 26 26 25 25 25 25 25 24
31 31 31 32 32 32 33 33 33 34 34 33 33 33 33 34 34 34 34 33 32 32 31 30 31 30 29 29 29 29 29 28 28 28 28 28 27 27 26 26 25 25 26
32 32 32 32 33 33 33 33 33 34 34 33 33 34 34 35 35 35 35 34 33 33 32 31 31 31 31 31 30 30 30 29 29 29 29 28 27 27 27 27 26 26 26
32 32 33 33 33 33 33 33 33 33 33 34 34 34 35 36 36 36 35 35 35 34 33 33 33 32 32 33 32 31 31 31 30 30 30 30 29 28 28 28 27 27 27
32 33 33 34 34 34 34 34 33 33 34 34 34 34 35 36 36 36 36 36 35 34 34 33 34 34 33 33 33 32 32 32 32 31 31 31 31 30 30 29 29 29 29
32 33 34 34 34 34 34 35 35 34 34 34 35 35 36 36 36 36 36 36 35 35 34 34 33 34 33 33 34 34 33 33 32 32 31 31 31 31 31 31 30 30 30
33 33 33 33 34 33 33 33 33 34 34 34 34 35 35 36 36 36 36 36 36 36 35 34 34 34 34 33 34 34 33 32 33 33 32 32 32 32 33 33 32 31 31
32 32 33 33 32 32 32 32 31 31 31 32 33 34 34 34 35 36 36 36 36 36 36 35 34 34 34 35 35 35 34 33 33 33 33 33 33 33 33 33 33 32 32
31 32 32 32 32 31 30 29 29 29 29 29 30 30 31 32 33 34 35 35 36 36 36 35 34 34 34 34 35 35 34 33 33 33 33 33 33 33 33 34 34 34 34
32 31 31 31 30 30 29 28 27 26 27 27 27 27 28 29 30 32 32 32 33 35 35 35 34 34 34 34 34 34 34 34 34 33 33 33 33 33 34 34 33 34 34
30 30 29 29 29 28 27 26 26 26 25 25 25 25 26 27 27 28 29 30 31 32 33 34 34 33 32 32 33 33 33 34 35 34 33 33 34 35 35 34 34 34 34
29 29 28 28 27 27 26 25 25 24 24 24 24 24 24 25 26 26 28 29 30 30 31 32 32 32 32 32 32 33 34 34 35 35 35 35 35 36 36 36 36 36 36
28 28 27 26 26 25 24 24 23 23 22 23 23 24 24 24 25 26 27 28 28 29 30 31 31 31 32 32 32 33 33 34 34 35 35 36 36 36 37 37 37 37 37

GEFSGL_500_meanwind_246.txt.gz
Wind_Speed
17 17 17 17 17 17 17 17 17 17 17 18 17 16 16 16 16 16 17 17 16 16 16 15 15 15 15 14 14 14 13 13 12 13 13 12 12 11 11 11 10 10 10
18 17 17 18 18 18 18 18 18 19 19 18 18 17 17 17 17 17 17 17 17 16 16 16 15 15 15 15 16 15 15 14 14 14 13 13 12 12 12 12 12 11 11
19 19 19 19 19 19 19 19 19 20 20 19 19 18 18 18 18 18 18 18 18 17 17 16 16 16 16 16 16 16 16 15 15 14 13 13 13 13 13 13 13 13 13
20 20 20 20 20 20 20 20 19 20 20 20 20 20 20 19 19 19 19 19 18 18 18 18 17 17 17 17 17 17 16 15 15 15 15 14 14 13 14 14 14 14 14
20 20 20 21 20 20 20 20 19 19 19 20 20 20 20 20 20 20 20 20 20 20 20 19 19 18 17 17 17 18 17 17 16 16 16 15 15 15 15 15 15 15 15
21 21 21 21 20 20 20 20 20 20 20 20 20 21 20 20 21 21 21 22 22 21 21 21 21 20 20 19 19 19 19 18 17 17 17 17 16 16 16 16 16 16 17
21 21 21 21 21 22 22 21 21 21 21 22 22 22 22 22 22 23 23 23 23 23 23 23 23 22 22 21 21 20 20 20 19 19 19 18 18 18 17 17 18 18 18
22 22 22 22 23 23 23 23 23 23 23 23 23 24 24 24 24 25 25 25 25 25 24 25 24 24 24 23 22 22 21 21 21 20 20 20 20 20 19 19 19 19 19
23 23 23 24 24 23 24 24 24 24 25 25 25 25 25 25 26 26 26 26 26 26 26 26 26 25 25 25 24 24 23 23 23 22 22 22 21 21 21 21 20 19 19
23 23 24 24 25 25 25 25 26 26 26 26 26 26 26 26 27 27 27 27 27 27 27 27 27 26 25 26 26 25 25 25 24 24 23 23 23 22 21 21 21 21 20
24 25 25 26 26 26 26 27 27 27 28 28 28 28 28 28 28 28 29 29 28 28 28 28 28 28 27 27 27 27 27 27 26 26 25 25 24 23 23 22 22 22 22
24 25 25 25 26 27 28 28 28 28 29 29 29 29 29 30 30 30 30 30 30 30 29 29 30 30 29 29 29 29 29 28 28 27 27 27 26 26 25 25 24 24 24
25 25 26 26 27 27 28 29 29 30 30 30 30 30 30 30 31 31 32 32 32 31 31 31 31 31 30 30 30 30 30 30 30 29 29 28 27 27 27 27 26 26 26
26 27 27 28 28 28 29 30 30 31 31 31 31 30 30 30 31 31 32 32 33 33 33 33 33 33 32 32 32 32 31 30 30 31 31 30 29 29 28 28 27 27 27
27 27 28 28 28 29 29 30 30 30 31 31 31 32 32 32 32 32 32 33 33 34 34 34 34 34 34 34 34 35 34 33 32 32 32 32 31 30 30 30 29 28 28
27 28 28 29 29 30 30 30 31 31 32 32 32 33 33 33 33 33 33 33 34 34 35 35 35 35 35 35 36 36 36 35 35 33 33 33 32 32 31 31 30 29 28
28 29 29 30 30 31 31 31 31 32 32 32 32 32 32 32 33 33 34 35 35 35 36 35 35 36 35 35 36 36 35 35 35 35 34 33 33 33 32 32 31 30 30
29 29 30 31 31 31 31 31 31 31 31 31 32 33 33 34 34 34 35 35 35 35 35 35 35 35 35 35 35 35 35 35 35 35 35 34 34 34 33 33 32 31 31
29 29 30 30 30 31 31 31 31 30 30 31 31 32 33 33 34 35 35 34 35 35 35 35 36 36 35 35 35 35 35 35 35 35 35 34 33 33 33 33 32 32 31
29 29 29 30 30 30 30 30 30 30 30 30 31 31 32 32 33 33 33 33 33 33 34 35 35 36 36 35 35 35 35 35 35 34 35 35 34 33 33 32 32 32 32
29 29 30 30 30 31 31 30 30 30 30 30 29 30 30 30 30 31 31 31 31 31 32 33 34 35 35 35 35 36 36 36 35 35 35 34 34 34 33 33 32 33 33
29 30 30 30 30 31 30 30 29 30 30 30 29 29 30 30 30 29 30 30 30 31 31 32 32 33 33 34 35 36 36 36 36 35 35 35 34 35 34 34 34 34 34
30 30 30 30 30 30 29 29 29 29 29 29 29 29 28 29 29 29 30 30 30 30 30 31 32 33 32 33 33 34 35 36 36 36 36 36 36 36 35 35 36 35 35
29 29 29 29 29 29 29 29 29 29 28 28 28 28 28 27 28 29 29 29 29 29 30 31 31 31 32 32 32 32 33 34 34 34 35 35 35 36 36 35 36 35 35
28 28 28 28 28 28 28 28 29 29 29 28 28 28 28 28 28 28 28 28 28 28 29 30 30 30 30 31 31 31 32 33 33 34 34 34 35 35 35 36 36 36 36
27 27 27 27 28 28 28 29 29 28 28 28 28 28 28 28 28 28 27 28 28 29 29 29 29 29 29 30 30 30 31 31 32 33 34 34 34 34 35 35 35 35 35

GEFSGL_500_meanwind_252.txt.gz
Wind_Speed
20 19 19 18 18 18 18 18 17 17 17 17 17 17 17 17 17 17 16 16 16 15 15 14 14 14 14 14 14 14 14 13 13 13 13 14 13 13 13 12 12 11 11
21 20 19 19 19 19 19 19 18 18 18 18 18 18 18 18 17 17 17 17 16 16 16 16 15 15 15 14 14 14 14 14 14 13 13 13 13 12 12 12 12 13 13
20 20 20 20 20 20 20 20 19 19 19 19 19 19 19 19 18 18 18 18 18 17 17 17 17 17 16 16 16 15 15 15 15 15 14 14 13 13 12 13 13 13 13
20 20 20 20 20 20 20 20 20 19 19 19 19 19 19 20 19 19 19 19 19 19 19 18 18 17 17 17 17 16 16 16 17 16 16 15 14 14 14 14 14 14 14
21 21 21 21 21 21 20 20 19 19 19 19 19 19 19 19 19 19 20 20 20 20 20 20 20 19 18 18 18 18 18 17 18 17 17 16 16 15 15 15 15 16 16
22 21 21 21 21 20 20 20 20 20 20 20 20 20 20 20 20 20 21 21 22 22 22 22 22 21 21 20 20 20 19 19 19 19 19 18 18 17 17 17 16 17 17
22 22 22 22 22 22 21 21 21 21 21 22 22 22 22 22 22 22 22 22 23 23 23 23 23 23 23 23 22 22 21 21 20 20 20 20 20 19 18 18 18 18 18
23 23 23 23 23 23 23 22 22 22 22 22 23 23 23 23 24 24 23 23 23 23 24 24 24 24 24 24 24 24 24 24 23 23 22 22 22 21 21 20 20 20 20
24 24 24 24 23 23 23 24 24 24 24 24 24 25 25 25 25 25 25 24 24 24 24 25 25 26 26 26 26 26 26 26 25 24 24 24 24 23 22 22 22 22 21
24 24 24 24 24 24 25 25 26 26 25 25 25 25 26 26 26 27 27 26 26 26 26 26 26 27 27 28 28 27 27 27 26 26 26 25 25 24 24 23 23 22 22
25 25 25 24 25 25 26 26 27 26 26 26 27 27 27 27 27 28 28 28 28 28 28 27 27 28 29 29 28 28 28 28 28 27 27 27 27 26 26 25 24 24 23
26 26 26 26 26 26 27 27 27 28 28 28 28 28 28 29 29 29 30 30 30 30 30 29 30 30 30 30 30 30 30 30 29 28 28 28 28 28 28 27 26 26 25
26 27 26 26 27 27 28 28 28 29 29 29 29 29 29 30 31 31 31 31 31 31 31 30 30 31 31 31 31 31 31 31 31 30 30 30 29 29 28 28 28 28 27
27 27 27 27 27 28 28 29 29 29 29 30 30 30 29 30 30 31 31 31 32 32 32 32 31 32 32 32 32 32 32 32 32 31 31 30 31 31 30 30 29 29 28
28 28 28 28 28 29 29 29 29 29 29 29 30 30 30 29 29 30 30 31 32 33 33 33 33 33 33 33 33 33 33 33 33 33 32 32 32 31 31 31 31 30 30
29 29 29 29 29 30 30 29 29 29 30 30 30 30 31 30 30 30 30 31 31 32 32 33 33 33 34 34 34 34 34 33 33 33 33 33 33 32 32 32 32 31 31
29 28 28 29 29 29 29 29 29 29 30 30 30 31 31 31 31 31 31 31 31 32 32 32 32 33 33 34 34 34 34 34 34 34 33 33 33 32 32 32 32 32 32
28 28 29 29 30 30 29 29 29 29 29 29 29 30 31 31 31 31 31 32 32 32 32 33 33 33 33 33 33 34 34 34 34 34 34 34 33 32 32 32 32 32 32
28 29 29 29 29 30 30 30 30 30 30 30 30 30 30 30 31 31 31 32 31 31 32 32 32 32 33 33 33 34 34 34 34 34 34 33 33 33 32 32 32 32 32
29 29 29 29 29 29 29 29 30 30 31 31 30 30 31 31 31 31 31 32 32 32 33 33 33 32 32 33 33 33 34 34 34 34 34 34 33 33 32 32 32 33 33
29 29 29 29 29 30 30 30 30 30 31 31 31 31 31 31 32 32 32 31 32 32 33 33 33 33 32 32 33 33 33 34 34 35 35 34 34 34 34 33 32 33 34
30 29 30 30 30 30 30 31 31 31 31 31 31 31 31 31 31 32 32 32 32 32 32 32 32 32 32 32 32 33 33 33 33 33 34 33 34 34 34 34 33 34 34
30 30 30 31 31 31 31 31 31 32 32 32 32 32 32 32 32 32 32 31 32 32 32 32 31 32 32 32 32 32 32 32 32 33 33 34 33 34 34 34 34 34 35
31 31 31 30 31 31 31 31 31 31 32 32 32 32 31 32 32 32 31 32 31 31 31 31 31 31 32 32 32 32 32 32 33 33 33 33 34 35 35 35 34 34 34
31 31 31 31 31 31 31 31 31 31 31 31 31 31 31 31 31 31 31 31 31 31 31 31 31 31 31 31 31 31 31 31 32 32 33 32 33 34 35 35 35 35 35
30 30 30 31 31 31 30 30 30 30 30 31 30 30 30 30 30 30 30 30 30 30 30 30 30 30 31 31 31 31 31 31 32 32 31 31 32 33 34 34 34 34 34

GEFSGL_500_meanwind_258.txt.gz
Wind_Speed
18 17 17 18 17 17 17 17 18 18 17 17 17 17 16 16 16 16 16 16 16 15 15 16 16 16 16 16 15 15 15 14 14 14 14 13 13 13 13 13 12 12 12
19 18 18 18 18 18 18 18 18 19 18 18 18 18 18 18 18 17 17 17 17 17 16 16 17 17 17 16 16 16 16 16 16 15 16 15 15 15 14 14 14 14 14
20 20 19 18 19 19 19 19 19 20 20 20 20 19 19 19 19 19 18 18 18 18 18 17 17 17 18 18 18 18 17 17 17 17 17 17 16 16 15 15 15 15 15
19 20 20 19 19 19 19 19 20 20 20 20 20 20 20 20 20 20 20 19 19 19 19 19 19 19 19 19 19 19 19 18 18 18 18 17 17 16 16 15 15 16 16
20 20 19 19 19 19 20 20 20 20 20 21 21 21 21 20 20 21 20 20 20 20 20 20 20 20 20 20 20 20 20 20 19 19 18 18 18 18 18 17 17 18 17
20 20 20 19 19 20 20 21 20 20 21 21 22 21 21 21 21 21 21 21 21 21 21 21 21 22 21 22 22 21 21 21 21 20 20 19 19 19 19 19 19 19 19
21 20 20 20 20 20 20 20 21 21 21 20 21 22 21 21 22 22 22 22 22 22 22 22 22 23 23 23 23 23 23 23 22 22 22 21 20 20 20 20 20 20 20
21 21 21 21 21 21 21 21 21 21 21 21 22 22 22 22 22 23 23 23 23 23 24 24 24 24 24 25 24 24 24 24 24 24 23 23 22 22 22 22 22 22 22
21 21 22 21 21 21 22 22 22 22 22 22 22 22 22 23 23 24 25 25 25 25 25 25 25 25 25 25 25 26 26 26 26 26 25 25 25 25 25 24 24 23 23
22 22 23 23 23 23 23 24 24 24 24 23 23 23 23 23 24 25 26 26 27 27 26 26 26 26 27 26 26 27 27 27 27 27 27 26 26 26 26 26 26 25 24
23 23 24 25 25 25 25 25 25 25 25 25 24 24 24 24 25 25 26 26 27 28 28 28 28 28 28 28 27 27 28 28 29 28 28 28 27 27 27 27 27 27 26
24 24 25 26 27 27 27 27 27 26 27 27 26 25 25 26 26 27 27 27 27 28 28 29 29 29 29 29 29 28 28 29 30 30 29 29 29 29 29 29 29 29 28
25 25 26 26 27 28 29 29 29 28 28 28 28 28 28 28 27 28 28 28 27 28 28 29 30 30 31 31 30 30 30 30 30 31 31 31 31 31 31 30 30 30 30
26 26 27 27 28 29 29 29 29 29 29 29 29 29 29 29 29 29 28 28 29 29 29 29 29 30 31 31 31 31 31 32 32 32 32 32 32 32 32 31 31 31 31
27 27 28 28 29 29 29 29 29 29 29 29 29 30 30 30 29 30 29 29 29 29 29 29 29 30 31 31 31 31 31 31 32 33 34 34 34 34 34 34 33 33 32
26 27 28 28 28 29 29 29 29 29 29 29 29 30 30 30 30 31 31 30 30 30 30 29 29 30 31 31 32 32 32 32 32 33 34 34 35 35 35 35 34 33 32
27 27 28 28 28 28 28 28 29 29 29 29 29 30 30 30 31 31 31 31 31 30 30 29 29 29 29 31 32 32 32 33 33 34 34 34 34 35 35 35 35 34 34
27 27 28 28 28 28 28 28 28 28 28 29 30 30 30 31 31 31 32 32 31 30 30 30 30 30 30 30 31 32 32 32 33 34 34 34 35 34 34 34 34 34 34
27 28 28 28 27 28 28 28 28 28 28 28 29 30 30 31 31 31 31 31 31 30 30 30 31 31 31 31 31 32 32 32 33 33 33 34 34 35 34 34 34 34 34
28 28 28 28 27 27 27 27 28 28 28 28 29 29 29 30 31 31 31 31 31 31 31 31 31 31 31 31 32 32 32 33 33 33 33 33 33 34 34 34 35 34 34
28 28 28 28 27 27 27 27 27 27 27 27 28 29 29 29 30 30 31 31 31 31 31 31 31 31 31 31 31 31 31 32 33 33 33 33 33 33 33 34 34 35 35
29 29 28 28 27 27 27 27 27 27 27 28 28 28 29 30 30 30 30 30 30 30 30 30 30 31 31 32 32 31 31 32 33 34 34 34 34 34 33 34 35 35 35
29 29 29 28 28 28 28 28 28 28 28 28 29 28 27 27 28 28 28 28 29 29 30 30 29 30 31 32 32 32 32 32 33 33 34 34 35 34 35 35 35 36 35
28 28 28 28 28 28 29 29 29 29 28 28 28 28 27 27 27 27 28 28 28 29 30 30 29 30 31 31 31 32 32 33 33 34 34 35 35 35 35 36 36 37 36
27 27 27 27 27 27 28 28 28 28 28 28 28 28 28 27 27 27 28 28 29 29 30 30 30 31 31 32 32 31 32 33 33 33 34 35 36 36 36 36 37 37 38
27 26 27 27 27 27 27 27 27 28 27 27 27 27 28 28 28 28 28 29 29 30 30 31 31 32 33 33 33 33 33 34 33 34 34 35 36 36 36 36 37 37 37

GEFSGL_500_meanwind_264.txt.gz
Wind_Speed
18 18 17 17 17 17 17 17 16 16 17 17 18 18 17 17 18 18 18 18 18 18 18 18 18 17 17 18 17 17 17 17 18 18 17 18 17 17 17 16 16 16 16
18 18 17 17 18 17 17 17 17 18 18 18 18 19 19 19 19 20 20 20 19 19 19 19 19 19 19 18 19 18 18 18 18 18 18 18 19 19 18 18 18 18 18
18 18 17 18 18 18 17 18 19 19 20 20 20 20 20 21 21 21 21 21 20 20 20 20 20 20 20 20 20 19 19 19 19 18 19 19 19 19 19 19 19 18 18
18 18 18 19 19 18 19 19 19 20 20 20 21 21 21 22 22 22 22 22 21 21 21 21 21 21 21 21 21 21 20 19 20 20 20 20 20 19 19 19 18 18 18
18 19 19 19 19 19 20 20 20 20 20 21 21 21 22 22 22 22 22 22 22 22 22 22 22 21 21 22 22 22 22 21 21 21 21 21 21 20 20 20 19 19 19
19 20 20 19 19 19 20 21 21 21 21 22 22 22 23 23 22 22 22 23 23 23 22 22 22 22 22 23 23 23 23 23 23 22 22 22 22 21 21 21 20 20 19
21 21 20 20 20 20 21 21 21 21 22 22 23 23 23 24 24 23 23 23 23 23 23 23 23 23 22 23 23 24 24 24 24 24 23 23 23 22 22 22 21 21 20
22 22 21 21 22 21 21 21 21 22 22 23 23 23 24 24 24 23 23 23 24 24 24 24 24 24 23 24 24 24 24 25 24 24 25 24 23 23 23 23 23 22 22
24 24 23 23 22 22 22 22 23 22 23 23 24 24 24 24 24 24 23 23 23 24 24 24 24 24 24 24 25 25 25 25 26 26 25 26 26 25 25 25 25 24 24
25 25 25 24 23 23 23 23 23 23 23 23 23 23 23 24 24 24 23 24 24 24 24 25 25 25 26 26 26 26 25 26 26 26 27 27 28 28 27 26 27 26 26
26 26 25 25 24 24 24 24 24 24 23 23 23 23 23 24 24 25 25 25 25 25 25 26 26 27 27 27 27 27 27 27 27 27 28 28 29 29 29 29 29 28 28
27 26 26 25 25 25 25 25 25 25 25 24 24 24 24 24 25 26 26 26 26 26 26 27 27 28 28 28 28 27 27 27 27 28 29 29 29 29 30 30 30 30 29
27 27 27 26 26 26 26 26 26 26 25 26 25 25 25 25 25 26 26 27 27 27 27 27 28 28 28 28 28 28 28 28 28 28 29 29 30 30 30 30 30 31 31
28 27 28 28 28 28 27 27 27 27 26 26 26 26 26 26 27 27 28 28 28 28 28 28 28 29 28 29 29 29 29 29 30 30 29 29 30 30 30 30 31 31 31
28 29 29 30 29 29 28 28 28 28 28 28 27 27 26 26 27 28 28 29 29 29 29 29 29 29 29 29 30 30 31 31 31 31 30 31 31 31 31 31 31 31 31
29 29 29 30 30 29 29 29 29 29 29 28 27 27 27 28 28 28 29 29 30 30 30 30 30 30 31 30 31 31 31 32 31 31 31 31 31 31 31 31 31 31 32
30 29 29 29 29 29 29 29 28 28 28 28 28 28 28 28 29 29 29 30 30 30 31 30 30 30 31 31 31 31 31 31 32 31 31 31 31 32 31 32 32 32 32
30 30 30 29 28 29 29 28 28 27 28 28 28 28 28 29 29 30 30 31 31 30 31 31 31 31 32 32 31 31 31 31 32 31 31 31 31 32 32 32 33 33 33
30 29 29 29 29 28 28 28 27 27 27 27 27 28 28 29 29 29 30 30 31 31 31 31 31 32 32 32 32 31 31 31 32 32 32 32 32 32 32 32 32 33 34
29 30 29 28 28 28 28 28 27 27 28 28 27 28 28 28 28 29 30 30 30 30 30 31 31 31 31 32 32 32 32 32 32 33 33 33 33 33 33 33 33 33 34
30 29 29 29 29 29 28 28 28 28 29 29 29 28 28 28 29 29 30 30 30 30 30 30 31 31 31 32 32 32 32 32 32 33 33 34 34 34 34 34 34 35 35
30 29 28 29 29 29 29 29 28 29 29 29 29 29 29 29 29 30 30 30 30 30 30 30 31 31 32 32 32 32 32 32 32 33 33 34 34 34 34 34 34 35 35
30 29 28 28 29 29 29 28 28 28 29 29 29 30 30 30 30 30 29 29 29 29 30 30 30 31 31 32 32 32 32 32 32 33 34 34 34 34 34 34 35 35 36
29 29 29 29 29 29 29 28 28 28 28 29 29 29 30 29 29 29 29 29 29 29 30 30 30 31 31 31 31 32 33 34 34 34 34 35 35 35 35 35 35 35 36
29 29 29 28 28 29 29 28 28 28 29 29 29 29 28 28 29 29 29 29 29 29 29 30 30 30 31 31 32 32 33 33 34 35 36 36 36 37 36 36 35 36 36
28 28 28 28 28 28 28 28 28 28 28 28 29 29 29 29 28 28 28 28 28 29 29 29 30 30 31 31 32 33 33 33 34 35 35 36 36 36 36 36 36 36 36

GEFSGL_500_meanwind_270.txt.gz
Wind_Speed
18 18 19 19 19 19 18 18 18 18 19 18 18 18 18 18 19 19 19 18 19 19 19 20 20 20 20 19 19 19 20 19 19 19 20 20 19 19 19 18 18 18 18
19 19 19 20 19 19 19 19 18 18 18 18 18 19 19 19 19 19 19 19 19 18 19 20 20 21 21 21 21 20 20 21 20 20 20 20 20 20 20 20 20 19 19
19 19 19 20 20 20 20 19 19 18 19 19 19 19 20 20 20 21 20 20 20 19 19 20 21 21 21 21 22 22 21 21 21 21 21 21 21 21 21 21 20 20 19
20 20 20 20 20 20 20 20 19 19 20 20 19 19 19 20 20 21 22 21 21 21 21 21 21 22 22 22 23 23 23 22 22 22 22 22 22 22 22 21 20 20 20
21 21 21 21 21 20 20 20 20 20 20 19 20 20 19 20 20 21 22 22 22 22 22 22 22 22 23 22 23 23 23 22 22 22 22 22 23 23 22 22 21 21 20
22 22 22 21 21 21 20 20 20 21 21 22 22 21 21 20 20 21 22 22 23 23 22 22 23 23 23 23 23 23 23 23 23 23 23 23 23 23 23 23 22 22 22
23 22 22 22 21 22 22 21 21 21 21 22 23 23 22 22 22 22 23 23 23 23 23 24 24 24 23 23 23 24 24 24 23 23 23 23 23 23 23 23 23 23 23
24 23 23 23 22 22 22 22 22 22 22 23 23 23 23 23 23 23 24 24 24 24 24 24 25 25 25 25 25 25 25 25 24 24 24 24 25 24 24 24 24 24 23
25 25 24 24 23 23 23 23 23 23 23 23 23 23 23 23 23 24 24 24 25 25 25 25 25 25 25 26 26 26 26 25 25 25 25 26 26 25 25 25 25 25 25
25 25 25 25 25 24 24 24 24 25 25 24 24 24 23 23 23 24 25 25 26 26 26 25 25 26 26 26 26 26 26 26 26 26 26 26 26 26 25 25 25 25 26
26 26 26 25 25 25 25 25 25 25 26 26 25 24 24 24 24 24 25 25 25 26 25 26 26 27 27 27 27 27 27 27 27 27 27 27 27 27 27 26 25 25 26
27 27 27 27 27 27 27 27 27 27 28 28 27 26 25 25 25 25 25 26 26 25 25 26 26 27 27 27 27 27 27 28 27 27 27 27 27 27 27 28 27 27 27
28 29 29 28 28 28 28 28 28 28 28 28 27 26 26 26 25 26 26 27 26 26 25 26 26 27 27 28 28 28 29 28 28 28 28 28 28 28 28 29 29 29 28
30 29 29 29 29 29 29 28 27 26 26 27 27 26 26 27 26 27 27 27 27 27 27 26 27 27 28 28 29 29 30 30 30 29 29 29 30 30 30 30 30 30 30
29 29 28 29 30 29 28 27 27 26 26 26 26 26 27 27 27 28 28 28 28 28 28 28 28 28 28 29 30 30 31 31 31 31 30 30 30 31 31 31 30 30 30
28 28 27 27 27 27 27 27 26 26 26 26 26 27 27 27 28 28 27 28 28 29 29 28 28 28 28 29 29 30 31 31 32 32 31 31 32 32 32 32 32 31 31
27 26 26 27 27 27 27 27 27 27 27 27 27 27 28 28 28 28 28 28 28 29 29 29 29 28 29 30 30 30 31 32 32 33 33 32 32 32 33 33 33 32 32
26 26 26 26 27 27 27 27 27 28 27 28 28 28 28 28 28 28 28 28 28 29 29 30 30 30 29 30 30 30 31 32 33 33 33 34 33 33 33 33 33 33 33
27 27 27 27 27 26 27 27 28 28 28 28 29 29 28 28 28 28 28 28 28 28 28 29 29 29 29 29 29 29 30 31 32 33 33 34 34 34 34 34 34 34 33
27 27 27 27 27 27 27 27 27 27 28 27 28 28 28 28 28 28 28 27 27 27 27 28 28 29 29 30 30 30 30 31 32 33 33 33 34 34 35 35 34 34 34
27 27 27 27 27 27 27 27 27 27 27 27 27 27 27 27 27 27 28 27 27 27 27 28 28 28 29 29 30 30 31 30 31 32 33 34 34 34 35 35 36 36 35
27 27 27 27 27 28 28 28 28 27 27 26 26 26 27 27 27 27 27 27 28 28 28 28 28 29 30 30 30 31 31 31 31 32 33 34 34 34 35 35 36 36 36
26 26 26 27 27 28 28 28 27 27 27 26 26 26 26 27 27 27 27 27 27 28 28 28 28 28 29 29 30 30 31 31 31 32 32 33 34 34 35 35 36 36 36
25 26 27 27 27 27 27 27 27 27 26 26 26 26 26 26 26 27 26 27 27 28 28 28 29 29 29 29 30 30 30 30 31 31 32 33 34 35 35 36 36 37 37
26 27 27 27 27 27 27 27 27 26 26 26 26 25 25 26 26 26 26 26 26 27 27 28 28 29 29 30 30 31 31 31 31 31 31 32 33 34 35 36 36 37 37
26 25 26 26 27 27 26 26 26 26 25 25 25 25 25 25 25 25 25 26 26 26 26 27 27 28 29 30 30 30 30 30 30 31 31 31 32 33 34 35 36 36 37

GEFSGL_500_meanwind_276.txt.gz
Wind_Speed
20 19 20 20 20 20 20 20 20 21 21 21 20 20 20 20 20 20 20 20 20 20 19 20 20 19 19 19 19 20 20 20 20 19 19 18 19 19 19 19 18 17 16
21 20 21 22 22 22 22 22 21 22 22 22 22 21 21 21 21 21 21 21 21 20 20 20 20 20 20 20 20 19 20 20 20 20 19 19 18 19 19 19 19 18 18
23 22 21 21 22 23 23 23 22 23 22 23 23 22 21 21 21 21 22 22 22 21 21 20 20 21 20 20 19 19 20 21 21 21 20 20 20 20 20 20 19 20 19
24 24 22 22 23 23 23 23 23 23 23 23 23 22 22 23 23 22 22 22 23 23 22 21 21 21 21 21 21 21 21 21 22 22 23 22 21 21 21 21 20 20 20
25 25 25 24 23 23 24 25 25 24 24 23 23 23 23 23 23 22 22 23 23 23 23 22 22 22 22 22 22 22 22 22 22 23 23 22 21 21 20 20 20 20 21
25 26 26 25 24 24 25 25 25 24 24 23 23 23 23 23 23 23 23 23 23 23 24 24 23 23 23 23 23 23 22 23 23 23 23 22 22 22 21 21 21 21 21
26 26 27 27 26 26 25 25 25 24 23 24 24 24 24 24 24 24 24 24 25 24 24 25 24 24 23 23 24 24 24 23 23 24 24 23 23 23 24 23 22 22 22
28 27 27 28 28 27 26 26 25 24 24 25 25 25 25 24 24 25 26 26 25 25 25 25 25 25 25 25 25 25 25 25 25 24 24 24 24 24 24 24 23 23 23
29 29 29 29 28 29 28 26 26 26 26 26 26 26 26 26 26 26 26 26 26 25 25 25 26 26 26 26 26 26 26 26 26 26 25 25 25 25 25 25 25 24 24
30 30 30 30 29 29 28 28 27 27 26 26 26 26 26 26 27 27 27 26 26 26 26 26 26 26 27 27 27 27 27 27 27 27 26 26 27 27 27 27 26 26 25
31 30 30 30 30 29 28 28 27 27 27 27 27 27 27 26 27 27 27 27 27 27 27 27 27 27 27 28 28 28 28 28 28 28 28 28 28 28 27 27 27 27 26
30 30 30 30 30 30 29 28 27 28 27 26 27 27 27 27 27 26 26 27 27 27 27 27 28 28 29 28 28 28 28 29 29 29 29 29 29 28 28 28 28 27 27
30 30 30 30 30 30 30 29 29 29 28 27 27 27 28 28 27 27 27 27 27 27 28 28 28 28 29 29 28 28 29 29 29 29 28 28 28 29 29 28 28 28 28
31 31 30 30 30 29 29 29 30 29 29 28 28 28 28 28 28 28 27 27 28 28 29 29 29 29 29 29 28 28 28 28 28 28 28 28 27 27 28 28 27 28 28
30 29 29 29 29 29 28 28 29 29 29 29 29 29 28 28 28 28 27 28 28 29 29 29 29 29 29 29 29 29 28 27 27 27 27 27 27 28 28 28 28 28 28
29 29 29 29 29 29 28 28 28 28 28 28 29 29 29 29 29 28 28 28 29 29 28 29 28 28 28 28 28 28 28 27 27 27 27 28 28 29 29 30 29 29 29
29 29 29 28 29 29 28 27 27 28 28 28 29 29 29 29 28 28 27 28 28 28 28 27 27 27 27 27 27 28 29 29 29 29 28 28 28 29 30 30 30 31 30
28 28 28 28 28 28 28 27 27 27 27 28 29 29 30 29 28 28 29 28 27 27 26 26 26 25 26 26 26 27 28 29 29 29 29 28 28 29 30 30 31 31 31
28 28 28 28 28 28 28 28 28 28 27 28 28 28 29 29 28 28 28 28 27 27 26 26 25 25 25 26 26 26 27 28 29 29 29 29 29 29 29 30 31 31 32
28 28 27 27 27 27 27 27 28 27 27 27 27 27 28 28 28 28 28 28 27 26 25 25 25 25 25 26 26 26 27 27 28 28 29 29 29 28 29 29 30 31 31
27 26 26 25 25 25 25 26 26 26 26 26 26 27 27 28 28 28 27 27 26 26 25 24 24 24 25 25 26 27 27 28 28 29 29 29 29 29 29 30 30 30 31
25 25 25 24 24 25 25 26 26 25 25 25 25 26 26 26 26 26 26 26 26 26 26 25 25 25 25 25 26 26 27 27 28 28 29 29 29 30 30 30 30 30 31
24 25 25 25 25 25 25 25 25 25 25 25 25 25 25 25 26 25 25 26 25 25 25 25 26 26 26 26 26 26 27 27 28 29 29 29 29 30 30 30 30 31 31
23 24 24 24 24 24 25 25 25 25 25 25 25 26 26 25 25 24 24 25 25 25 25 25 26 26 26 27 27 27 28 28 28 29 29 29 29 30 30 30 31 32 32
23 23 23 23 24 24 24 24 24 24 24 25 25 26 25 25 24 24 24 24 24 25 25 25 25 25 25 26 27 27 28 28 28 29 30 30 30 30 30 30 30 31 32
23 23 23 23 24 24 24 24 23 24 24 24 25 24 23 23 23 23 23 23 23 24 24 24 24 25 25 25 26 27 27 27 28 29 30 30 30 30 31 31 31 31 32

GEFSGL_500_meanwind_282.txt.gz
Wind_Speed
20 19 18 18 18 18 19 19 19 19 19 19 20 20 20 20 20 20 20 21 21 21 20 20 20 19 19 19 19 20 20 20 20 19 19 19 19 19 19 19 19 19 19
20 20 20 20 20 20 20 20 20 20 20 20 20 21 21 21 21 21 22 22 22 22 21 21 21 20 20 20 20 20 20 20 20 20 20 20 20 19 19 20 19 19 20
21 21 21 22 22 22 22 22 21 22 21 21 22 22 22 23 23 23 23 23 23 23 23 22 22 21 21 21 21 21 21 21 21 21 21 21 21 20 20 20 20 20 21
23 23 23 23 23 23 23 23 23 23 23 23 23 23 23 24 23 24 24 23 23 24 24 23 23 23 22 22 22 22 22 22 22 22 22 21 21 21 21 21 20 21 21
24 24 25 25 25 25 24 24 23 23 23 24 24 24 24 24 24 24 24 24 24 24 24 24 23 23 23 23 23 23 23 23 22 22 22 22 22 22 23 23 22 22 22
25 25 26 26 26 26 26 25 25 24 25 25 25 25 25 24 24 24 24 25 25 24 24 25 24 24 25 25 25 24 24 24 23 23 23 23 23 23 24 24 24 23 23
27 27 26 26 26 26 26 26 26 26 26 26 26 26 26 25 24 24 25 24 24 24 24 25 25 25 25 26 26 26 26 25 24 24 24 24 24 25 25 24 24 24 24
28 28 27 27 27 27 28 28 28 28 28 27 27 26 26 26 25 25 25 25 25 25 25 25 26 26 26 27 27 27 27 26 25 25 26 26 25 26 26 26 25 25 25
29 29 28 28 29 29 29 29 29 28 28 28 27 27 26 26 26 25 25 25 25 25 25 25 25 25 26 27 27 27 27 26 26 26 26 26 27 28 27 27 27 27 26
30 30 30 30 30 29 29 28 29 29 28 28 27 27 26 25 25 25 25 25 25 25 25 25 25 26 27 27 27 28 28 27 27 27 27 27 27 28 28 28 28 28 28
31 31 31 31 30 29 29 29 29 29 29 28 27 27 26 25 26 26 25 25 26 26 26 26 26 27 27 27 28 28 28 28 28 28 28 27 27 27 27 27 28 28 27
31 31 31 30 30 30 30 29 29 29 28 28 28 28 27 26 26 26 26 26 26 26 26 26 26 27 27 27 28 28 28 28 28 28 28 28 27 28 27 27 28 28 28
31 31 31 31 31 31 30 29 29 28 28 28 28 27 27 26 26 26 26 27 27 26 26 25 25 25 26 26 27 28 28 27 28 28 28 28 28 28 28 28 28 28 28
31 31 30 30 30 30 30 30 29 29 28 28 27 26 26 26 26 25 26 26 26 26 25 25 25 25 26 26 27 27 28 28 27 28 28 29 29 28 28 28 28 28 29
31 31 30 30 30 30 30 29 29 28 28 28 27 26 25 26 26 26 26 25 26 26 26 26 26 26 26 25 25 26 27 27 27 28 28 28 28 28 28 28 28 28 28
31 31 31 30 29 29 28 29 28 28 27 27 26 26 26 26 26 26 25 25 25 25 25 25 25 26 26 26 26 26 27 27 28 28 28 28 28 28 27 27 27 28 28
31 30 30 29 28 28 28 28 28 27 27 26 26 26 27 26 26 25 24 25 25 26 25 24 25 25 25 25 26 26 26 27 28 28 28 28 29 29 29 27 27 28 28
30 30 29 29 28 28 27 27 27 27 26 26 26 27 27 27 26 25 25 25 25 25 25 24 24 24 24 24 25 26 26 26 27 28 28 29 30 30 30 29 28 28 29
28 28 28 28 27 27 27 27 27 26 25 25 26 26 26 26 26 26 25 25 24 24 24 24 25 25 24 24 24 25 25 26 26 27 28 28 29 30 31 30 29 29 29
27 27 27 27 26 26 26 26 26 25 25 25 24 24 25 25 25 24 24 24 24 24 24 25 25 25 25 24 24 23 24 25 26 26 27 27 28 29 30 31 31 30 30
26 26 26 26 25 25 25 24 24 24 24 24 24 24 24 23 23 23 24 24 23 23 24 24 25 25 25 24 24 24 24 24 24 25 26 26 27 28 29 29 30 30 30
24 24 24 24 23 23 23 23 22 22 23 24 24 25 24 23 22 22 23 23 23 23 23 24 24 25 25 24 24 24 24 24 24 25 26 27 27 28 28 28 29 29 29
22 22 23 23 23 23 23 22 22 22 22 23 23 23 23 22 22 22 23 23 23 23 24 24 24 23 23 23 23 23 24 24 24 25 26 26 27 27 28 28 28 29 29
22 22 22 22 22 22 21 21 21 21 21 21 22 22 22 22 22 22 23 23 23 23 24 24 24 23 23 23 22 22 23 23 24 25 25 26 26 27 27 28 28 28 29
22 21 21 21 22 22 22 21 21 21 21 22 22 22 22 22 22 22 23 23 23 24 24 24 24 23 23 23 23 23 23 24 24 24 25 25 26 27 27 28 28 28 29
22 22 22 22 22 22 22 22 22 22 22 22 22 22 22 23 23 23 23 23 23 23 24 24 24 24 24 24 24 24 24 25 25 25 25 26 26 27 28 28 29 29 29

GEFSGL_500_meanwind_288.txt.gz
Wind_Speed
20 19 19 20 20 19 19 19 19 19 19 19 19 19 19 19 19 20 20 20 20 20 20 20 20 21 21 21 22 22 21 21 21 21 21 20 21 21 22 23 22 22 22
20 20 21 21 21 21 20 19 19 20 20 20 20 20 20 21 21 21 21 21 22 22 23 22 22 23 23 23 23 23 22 22 22 22 22 22 22 22 21 22 22 23 23
20 20 21 22 21 22 21 21 21 21 21 21 21 21 22 22 23 23 23 23 23 24 24 25 24 24 24 24 24 24 24 24 24 23 23 23 23 23 22 22 22 22 23
21 21 21 22 21 22 22 22 22 22 23 23 23 23 23 23 24 24 24 25 25 25 26 26 26 25 25 26 26 26 26 26 25 25 24 24 24 24 23 23 22 23 24
23 23 22 22 22 22 23 23 23 23 24 24 24 24 24 24 25 25 26 26 26 26 26 26 26 26 26 26 26 27 27 27 27 26 25 25 25 25 24 24 23 24 24
24 24 24 24 24 24 24 24 24 24 24 25 25 25 25 25 26 26 26 26 26 25 25 25 25 25 26 26 26 27 27 27 27 27 27 26 25 25 25 25 25 25 25
25 26 26 27 27 26 27 27 27 26 26 26 27 27 27 27 27 27 28 26 25 25 25 25 24 25 25 25 26 26 27 27 27 27 27 27 26 26 26 26 26 25 26
27 27 27 28 28 28 28 28 29 29 28 28 27 27 27 28 28 28 28 28 27 26 25 25 25 25 25 25 25 25 26 27 27 27 28 28 28 28 27 26 26 26 26
28 28 29 29 30 30 29 29 29 29 29 28 28 28 29 29 29 29 29 28 27 26 25 25 25 25 25 25 26 26 26 26 27 28 28 28 28 28 28 27 26 26 26
28 27 28 29 30 30 30 30 29 29 29 29 29 29 29 28 28 28 28 28 27 26 26 25 26 26 26 26 26 26 26 26 26 27 28 27 28 28 28 27 27 27 27
28 29 29 29 29 30 30 29 28 28 28 28 28 28 27 27 27 27 27 27 27 26 27 26 27 27 27 27 27 26 26 27 27 26 27 28 27 27 27 28 28 28 28
30 31 30 30 30 30 29 29 29 29 28 28 28 27 26 26 26 27 27 27 27 26 26 26 27 27 27 27 27 27 26 27 27 27 27 28 27 27 27 27 28 28 28
31 30 30 30 30 30 30 30 30 29 28 28 28 27 27 26 26 27 27 28 27 27 27 26 26 26 27 28 28 27 26 26 26 27 27 27 28 28 28 27 27 28 28
31 31 31 31 31 30 30 30 29 28 28 28 28 28 27 27 26 27 27 27 27 27 27 27 27 26 27 27 27 27 26 26 25 26 26 26 27 28 28 28 27 28 28
31 31 31 31 31 31 30 29 29 28 28 28 28 28 28 27 27 27 27 27 27 27 27 27 27 27 27 26 26 26 26 26 25 25 25 25 26 28 28 28 28 28 28
32 32 32 32 31 31 30 30 30 29 28 28 28 27 27 26 26 27 27 28 28 28 27 27 26 26 26 25 25 25 26 26 26 25 25 26 26 26 27 27 28 28 27
33 32 31 31 31 30 30 30 30 29 29 28 28 27 27 26 26 26 27 28 27 27 27 27 26 25 25 24 24 24 25 25 25 25 25 25 26 26 27 27 28 28 28
32 31 30 30 30 30 29 29 29 29 29 28 28 28 27 27 27 27 27 27 27 27 26 26 26 25 24 24 23 24 24 24 24 25 25 26 26 27 27 27 28 28 28
30 30 30 30 30 29 29 29 28 28 28 28 27 27 27 28 28 28 27 27 27 26 26 26 26 25 25 24 24 24 24 24 24 24 24 25 26 27 28 28 28 28 28
29 29 28 28 28 27 27 27 27 26 26 27 27 27 27 27 27 27 27 26 26 26 26 26 25 25 25 24 24 24 24 24 24 25 25 25 26 26 27 27 28 29 29
28 28 28 27 27 26 26 26 25 25 26 26 26 26 26 26 26 26 26 26 25 25 25 25 25 25 24 24 24 24 24 25 25 25 25 25 25 26 26 27 27 28 29
28 28 28 27 26 25 24 24 25 25 25 25 25 25 26 26 25 25 24 24 24 24 25 25 25 25 24 24 24 25 25 25 25 25 25 25 26 26 26 27 27 28 28
28 27 26 26 25 24 23 24 24 24 24 24 24 24 25 25 25 24 24 24 24 24 24 25 25 25 24 24 25 25 25 24 24 25 25 26 26 26 26 27 27 27 28
27 26 25 25 24 24 23 23 24 24 24 24 24 24 24 24 24 23 24 24 24 24 25 25 25 25 25 25 25 25 24 24 24 24 25 25 26 26 26 26 26 27 27
25 25 24 24 23 23 23 23 23 23 23 23 24 24 24 24 24 23 23 24 24 25 25 25 25 24 24 24 24 24 24 24 24 24 24 25 25 25 26 26 27 27 28
24 24 23 23 22 22 23 23 23 23 23 24 24 23 23 23 24 24 23 23 24 24 25 25 24 24 24 24 24 24 24 24 24 24 24 25 25 25 25 25 26 27 27

GEFSGL_500_meanwind_294.txt.gz
Wind_Speed
18 18 18 18 18 18 19 20 19 19 19 19 20 20 20 20 20 20 20 20 20 21 21 21 21 21 20 21 21 21 21 21 21 21 21 21 21 21 22 22 22 23 23
20 19 19 19 19 19 20 20 21 21 20 20 21 21 21 22 22 22 21 21 21 22 22 22 22 22 22 22 22 22 22 22 23 23 23 22 22 22 23 24 24 24 24
21 20 20 20 20 20 20 21 21 22 21 20 20 21 22 22 23 23 23 23 23 23 23 24 24 25 25 24 24 24 25 25 24 25 25 24 24 24 24 24 25 25 25
21 22 22 21 21 21 21 21 22 22 22 22 21 22 22 23 24 24 25 25 25 25 25 25 25 26 26 27 27 26 26 26 26 26 26 26 26 25 25 25 25 26 26
23 23 23 22 22 22 22 22 22 22 23 23 23 24 24 24 25 26 26 26 27 27 26 26 26 26 27 28 28 28 28 27 27 27 27 27 27 26 26 26 27 27 27
24 24 23 23 24 23 23 23 23 23 24 23 24 25 25 26 26 26 27 27 28 27 27 27 27 27 28 28 28 28 28 28 27 27 27 27 26 27 26 26 27 27 27
25 24 24 24 24 24 24 24 24 24 25 25 25 25 25 26 27 27 27 28 28 28 27 27 28 28 27 28 28 28 28 28 28 28 27 26 26 26 26 26 26 27 27
25 25 25 25 25 26 25 25 25 26 26 26 26 26 26 26 27 27 28 28 28 28 28 28 28 28 28 27 27 28 28 28 28 28 28 27 27 27 27 27 27 27 27
26 26 26 26 26 26 26 26 25 26 26 26 26 26 26 26 27 27 27 28 28 28 28 28 28 28 28 28 28 28 28 27 28 29 28 28 28 28 28 28 28 28 27
26 26 26 26 26 27 26 26 26 27 26 26 26 26 27 27 28 29 29 29 29 28 28 28 28 28 28 28 29 29 29 28 28 28 28 28 28 28 28 28 28 28 27
26 26 26 27 27 27 27 27 27 27 27 26 27 27 27 28 28 28 29 29 29 29 29 29 29 29 29 29 29 29 29 29 29 29 28 28 29 28 28 28 28 28 28
26 27 27 27 27 28 28 28 28 27 27 27 27 27 27 28 28 28 29 29 29 30 29 30 30 30 30 30 30 29 29 29 29 29 29 29 29 29 29 28 29 29 28
27 27 27 27 27 28 28 28 28 27 27 27 27 27 28 28 28 28 28 28 29 29 29 29 29 29 29 29 29 29 29 28 28 29 28 28 28 29 29 30 30 29 29
28 28 27 28 28 28 28 28 28 28 28 28 29 29 29 29 29 29 29 29 28 29 29 28 28 28 29 28 28 28 29 29 28 28 28 28 28 28 28 29 29 29 28
29 29 29 28 28 28 29 29 29 29 29 29 30 30 30 29 29 29 29 29 28 28 29 28 28 28 28 28 28 29 29 28 28 28 28 28 28 28 28 28 28 28 28
29 29 29 28 29 29 29 30 30 30 30 30 30 30 30 30 30 30 29 28 28 29 29 29 29 28 28 27 27 27 28 28 28 27 27 27 28 28 28 28 28 28 27
29 29 29 29 29 30 30 30 30 30 30 31 31 30 30 30 30 29 29 28 28 28 29 29 29 28 27 27 27 26 27 27 27 27 27 26 27 27 27 27 27 27 27
30 29 29 30 30 30 30 30 30 30 30 30 31 31 30 30 30 29 29 29 29 28 28 28 28 28 27 27 27 27 26 26 26 26 26 26 26 27 27 26 26 26 26
29 29 29 29 30 30 30 30 30 30 30 30 30 30 29 29 29 29 29 29 28 28 28 28 28 28 27 27 27 27 27 26 26 27 27 26 26 26 26 26 27 27 26
28 28 29 29 29 29 30 30 30 30 30 29 28 28 28 28 28 28 28 28 27 27 27 27 27 27 27 27 27 27 27 27 27 27 28 27 27 26 26 27 27 27 27
27 27 28 28 28 28 28 29 29 28 29 29 28 27 27 27 27 27 26 26 26 26 26 26 26 26 26 27 27 27 26 26 27 27 28 28 28 27 27 27 27 28 28
27 27 27 27 27 27 27 27 27 27 27 27 26 26 26 26 26 26 26 25 25 25 25 25 25 25 25 26 27 26 26 26 27 27 27 28 28 28 28 28 28 28 28
27 27 27 27 27 27 27 26 26 26 27 26 26 26 26 25 25 25 25 24 24 25 25 24 24 24 24 25 26 26 25 26 27 27 27 28 28 28 28 28 28 29 28
27 27 27 27 26 26 26 26 25 25 25 25 25 25 25 25 25 25 24 24 24 24 24 24 25 25 25 26 26 25 25 25 26 26 27 27 28 28 28 28 28 29 29
27 27 27 26 26 26 25 25 24 24 24 24 24 24 24 24 24 24 24 24 24 25 25 25 26 27 27 27 26 26 25 25 26 26 26 27 27 27 28 28 28 28 28
26 26 26 26 26 25 25 24 24 24 24 24 24 24 23 23 24 24 24 24 25 25 25 25 26 27 27 27 26 26 26 25 26 26 26 26 26 27 27 28 28 28 28